Regional Weather Roundup
Issued by NWS Cleveland, OH

Home | Current Version | Previous Version | Graphics & Text | Print | Product List | Glossary On
Versions: 1 2 3 4 5 6 7 8 9 10 11 12 13 14 15 16 17 18 19 20 21 22 23 24 25 26 27 28 29 30 31 32 33 34 35 36 37 38 39 40 41 42 43 44 45 46 47 48 49 50
000
ASUS41 KCLE 290502
RWRCLE
OHIO REGIONAL WEATHER ROUNDUP
NATIONAL WEATHER SERVICE CLEVELAND, OH
100 AM EDT FRI AUG 29 2014

NOTE: "FAIR" INDICATES FEW OR NO CLOUDS BELOW 12,000 FEET WITH NO
SIGNIFICANT WEATHER AND/OR OBSTRUCTIONS TO VISIBILITY.

OHZ001>008-015>018-024>027-034-035-043-044-290600-
   NORTHWEST OHIO

CITY           SKY/WX    TMP DP  RH WIND       PRES   REMARKS
DEFIANCE       CLEAR     62  56  80 E5        30.12F
FINDLAY        CLEAR     61  55  81 E7        30.13S
TOLEDO EXPRESS CLEAR     58  54  86 CALM      30.13S
TOLEDO EXEC    CLEAR     58  51  78 E6        30.14F
LIMA           CLEAR     62  57  83 E9        30.12F
$$

OHZ009>014-019>023-028>033-038-089-290600-
   NORTHEAST OHIO

CITY           SKY/WX    TMP DP  RH WIND       PRES   REMARKS
CLE-HOPKINS    MOCLDY    55  51  86 SE3       30.18S
CLE-LAKEFRONT  CLEAR     63  49  60 SE7       30.15S
CUY CO. ARPT   NOT AVBL
LORAIN-ELYRIA  CLEAR     55  51  86 CALM      30.17S
ASHTABULA      CLEAR     50  49  96 CALM      30.18S
AKRON-CANTON   PTCLDY    56  50  80 E6        30.17S
WOOSTER        CLEAR     50  47  89 CALM      30.17S
MANSFIELD      CLEAR     56  50  80 CALM      30.16S
YOUNGSTOWN     PTCLDY    50  49  96 E3        30.17S
$$

OHZ042-051>053-060>062-070>072-077>081-290600-
  SOUTHWEST OHIO

CITY           SKY/WX    TMP DP  RH WIND       PRES   REMARKS
CINC-COVINGTON MOCLDY    72  60  66 E6        30.09S
CINC-LUNKEN    CLEAR     69  62  78 NE6       30.09S
HAMILTON       PTCLDY    68  62  81 E5        30.10S
DAYTON         CLEAR     69  59  70 E7        30.12S
WRIGHT-PAT AFB CLEAR     67  60  76 NE3       30.11S
DAYTON GENERAL CLEAR     67  60  78 E7        30.10F
WILMINGTON     CLEAR     64  59  83 E6        30.11F
$$

OHZ036-037-039>041-045>050-054>059-063>069-073>076-082>088-290600-
  CENTRAL AND SOUTHEAST OHIO

CITY           SKY/WX    TMP DP  RH WIND       PRES   REMARKS
COLUMBUS       CLEAR     65  55  70 E5        30.12S
OSU AIRPORT    CLEAR     63  56  78 E8        30.13S
BOLTON FIELD   CLEAR     63  58  83 NE6       30.13S
RICKENBACK AFB CLEAR     63  55  76 NE7       30.11S
NEWARK         CLEAR     60  56  86 CALM      30.14S
MARION         CLEAR     57  53  86 E6        30.14F
LANCASTER      CLEAR     59  56  89 NE6       30.13S
ZANESVILLE     CLEAR     60  54  80 NE3       30.14S
NEW PHILLY     CLEAR     54  53  97 CALM      30.16F
$$


USA.gov is the U.S. government's official web portal to all federal, state and local government web resources and services.